Miscellaneous Local Product
Issued by NWS Hastings, NE

Home | Current Version | Previous Version | Text Only | Print | Product List | Glossary On
Versions: 1 2 3 4 5 6 7 8 9 10 11 12 13 14 15 16 17 18 19 20 21 22 23 24 25 26 27 28 29 30 31 32 33 34 35 36 37 38 39 40 41 42 43 44 45 46 47 48 49 50
000
AXUS43 KGID 241402
MISGRI

GID CWA HOURLY WEATHER ROUNDUP
NATIONAL WEATHER SERVICE HASTINGS NE
900 AM CDT SUN SEP 24 2017

NOTE: "FAIR" INDICATES FEW OR NO CLOUDS BELOW 12,000 FEET WITH NO
SIGNIFICANT WEATHER AND/OR OBSTRUCTIONS TO VISIBILITY.

...SOUTH CENTRAL NEBRASKA...

CITY           SKY/WX    TMP DP  RH WIND       PRES   REMARKS
GRAND ISLAND   PTSUNNY   70  65  84 S13       29.87S
HASTINGS       PTSUNNY   72  63  73 S9        29.89R
KEARNEY        LGT RAIN  66  64  93 SW10      29.89R
ORD            CLOUDY    57  54  89 NW7       29.87S
YORK           MOSUNNY   72  64  78 S12       29.89S
AURORA         CLOUDY    72  65  78 S12G20    29.89R
LEXINGTON      RAIN      60  58  95 W6        29.90R
HOLDREGE       LGT RAIN  65  63  92 S9        29.88S
HEBRON         MOSUNNY   74  64  70 S12       29.90S

...NEBRASKA PANHANDLE...

CITY           SKY/WX    TMP DP  RH WIND       PRES   REMARKS
CHADRON        CLOUDY    46  43  89 N5        30.02R
ALLIANCE       CLOUDY    45  43  93 N10       29.99R
SCOTTSBLUFF    CLOUDY    47  42  83 N8        29.99F
SIDNEY         CLOUDY    44  43  96 N13       29.99R

...WESTERN AND NORTH CENTRAL NEBRASKA...

CITY           SKY/WX    TMP DP  RH WIND       PRES   REMARKS
VALENTINE      LGT RAIN  51  49  92 NW8       29.92F
AINSWORTH      RAIN      50  50 100 N7        29.91S
ONEILL         LGT RAIN  52  52 100 NW7       29.90S
BROKEN BOW     LGT RAIN  53  52  96 N15       29.87F
IMPERIAL       CLOUDY    49  47  93 N14       29.95R
NORTH PLATTE   LGT RAIN  51  50  96 NW5       29.95R
MCCOOK         LGT RAIN  53  52  96 W13       29.93R FOG

...EASTERN NEBRASKA...

CITY           SKY/WX    TMP DP  RH WIND       PRES   REMARKS
NORFOLK        MOSUNNY   72  64  76 SE15      29.87S
SO SIOUX CITY  MOSUNNY   70  67  90 SE8       29.90S
TEKAMAH        PTSUNNY   72  66  81 SE9       29.91S
COLUMBUS       SUNNY     74  63  68 S14G20    29.88F
ALBION         CLOUDY    67  65  91 SE5       29.87R
OMAHA EPPLEY   CLOUDY    75  65  70 SE12      29.92S
OFFUTT AFB     MOSUNNY   73  66  80 SE8       29.92S
MILLARD        MOSUNNY   78  67  69 S7        29.92S
LINCOLN        MOSUNNY   74  63  68 S12       29.91S
NEBRASKA CITY  MOSUNNY   72  70  93 S7        29.94S
BEATRICE       CLOUDY    74  64  71 S10       29.92R
FALLS CITY     SUNNY     72  66  81 S9        29.94R

...NORTHERN KANSAS...

CITY           SKY/WX    TMP DP  RH WIND       PRES   REMARKS
GOODLAND       CLOUDY    50  49  96 NW13      29.97R
HILL CITY      LGT RAIN  64  63  96 S8        29.91R FOG
NORTON         LGT RAIN  63  59  88 S8        29.90R
PHILLIPSBURG   CLOUDY    66  61  82 SW13G18   29.90R
SMITH CENTER   CLOUDY    72  61  68 W9        29.91R
HAYS           CLOUDY    67  60  78 W12       29.93R
RUSSELL        CLOUDY    73  63  70 S15       29.89R
CONCORDIA      MOSUNNY   73  66  78 S15       29.90R
SALINA         MOSUNNY   78  65  63 S13       29.91R
TOPEKA         SUNNY     75  67  76 S8        29.95S



USA.gov is the U.S. government's official web portal to all federal, state and local government web resources and services.